GFSGL_con_lsi_048.txt.gz
Lid_Strength_Index
1 1 1 1 0 0 1 1 1 1 3 5 4 4 6 7 7 8 7 7 7 7 6 5 5 5 5 6 5 5 6 5 6 5 4 3 4 3 3 2 2 3 3
1 1 1 0 0 1 1 1 1 4 5 5 6 7 6 7 7 8 7 8 8 7 5 5 6 6 5 5 6 6 6 4 5 6 4 4 3 2 2 3 3 4 3
1 1 1 2 2 3 3 4 4 5 6 7 7 6 7 7 8 7 7 6 6 5 5 6 6 6 6 5 6 6 4 4 4 5 5 3 3 2 3 3 3 3 3
2 2 3 4 4 4 4 5 6 6 7 7 7 8 7 7 7 7 6 6 6 6 6 6 5 5 6 5 5 4 4 4 4 4 4 4 3 3 3 5 5 4 4
3 4 4 5 5 5 4 4 5 6 6 7 7 7 7 7 6 6 7 7 7 6 5 5 5 5 5 5 3 3 4 5 4 4 4 4 4 4 5 4 5 5 4
2 3 4 4 4 5 6 6 6 7 6 6 6 6 6 6 8 9 8 7 6 5 6 6 5 5 5 6 6 6 4 3 3 4 4 5 4 4 4 4 5 6 6
3 4 4 5 6 6 6 6 6 5 6 6 6 6 6 6 9 8 9 6 6 6 6 6 5 4 4 3 6 6 6 6 6 3 4 4 4 4 4 5 5 5 5
3 4 5 5 5 5 5 6 6 6 6 7 7 6 6 6 8 9 10 7 6 6 5 5 4 4 3 3 3 3 3 2 3 3 3 3 3 3 3 4 4 4 4
5 5 5 5 5 5 6 6 6 7 7 6 6 6 6 6 9 9 9 7 7 6 5 5 4 4 5 5 4 3 3 2 2 4 4 4 5 6 5 4 5 6 6
5 5 5 5 5 6 7 8 8 7 6 6 7 7 8 7 8 9 9 7 7 6 5 5 6 5 5 6 4 3 4 3 3 3 4 4 5 4 5 4 4 6 6
5 5 6 6 7 9 9 8 7 7 7 7 8 7 7 7 7 9 9 7 7 6 6 5 4 6 6 5 5 3 3 2 3 3 3 3 3 3 3 3 3 4 5
6 8 9 8 8 8 8 8 8 8 8 8 7 8 7 7 8 8 9 8 8 7 7 5 4 4 4 4 4 4 4 4 3 3 4 4 4 4 3 3 3 3 3
8 9 9 9 9 9 9 9 9 9 9 9 10 9 9 9 9 10 10 10 9 8 6 5 6 5 4 4 4 4 4 3 3 4 4 4 3 3 3 3 3 3 3
9 10 9 10 10 10 9 10 11 11 11 12 12 12 11 11 11 11 11 10 10 8 7 5 6 6 5 4 3 3 2 3 3 3 3 3 2 2 4 4 4 4 5
10 11 11 11 12 12 12 12 13 12 13 13 13 13 13 13 13 13 12 11 10 10 9 7 6 6 5 4 3 3 3 3 3 3 3 3 3 3 4 4 4 4 5
12 13 13 13 12 12 13 12 15 15 15 15 15 15 14 14 14 13 12 12 11 10 8 8 7 6 5 4 3 3 3 4 3 2 2 3 3 3 4 4 4 5 5
14 14 14 14 13 14 13 13 14 13 15 15 15 15 15 15 14 13 12 12 10 9 9 9 7 6 4 4 3 3 4 3 3 3 3 3 3 3 4 4 4 5 5
15 16 14 14 14 14 14 14 14 15 15 14 14 15 15 15 14 13 12 11 10 10 10 10 10 8 7 6 2 2 2 2 4 4 3 3 3 3 4 5 5 5 5
15 15 15 14 15 16 15 15 15 15 15 15 14 14 14 15 13 12 12 11 12 12 11 11 10 9 8 8 4 2 3 2 3 3 3 3 3 3 4 4 4 5 5
16 18 17 15 15 16 16 16 16 16 16 15 15 14 14 14 13 12 11 11 12 12 12 12 11 10 9 8 8 5 2 2 2 3 3 3 3 3 4 4 4 5 6
16 17 19 16 16 17 16 16 16 16 16 15 14 13 17 16 13 12 12 12 13 13 12 12 11 11 10 9 9 8 6 2 2 2 2 3 3 4 3 4 4 5 5
17 17 17 17 17 17 18 17 16 16 16 15 14 14 16 13 13 13 13 13 13 13 12 12 12 11 11 10 11 9 8 5 3 2 2 3 3 3 3 4 4 5 5
18 18 18 18 18 19 17 17 16 16 15 15 15 14 14 14 14 14 14 14 13 13 12 12 12 12 11 11 11 10 9 7 7 6 3 3 3 3 3 4 5 5 5
19 18 19 18 18 18 17 17 16 16 16 15 15 15 15 15 14 15 15 14 13 13 13 13 14 13 12 12 11 10 9 7 8 7 6 4 3 3 3 4 4 5 5
18 18 18 18 18 18 17 16 16 16 16 16 16 15 15 15 15 15 14 14 14 14 14 14 14 13 13 13 12 11 10 10 10 10 7 6 3 2 3 3 4 4 5
18 18 18 17 17 17 17 17 17 17 17 16 16 16 16 16 16 15 15 15 15 15 15 14 14 14 14 13 11 10 11 11 10 10 9 7 4 2 2 3 4 4 5

GFSGL_con_lsi_051.txt.gz
Lid_Strength_Index
1 1 1 1 0 1 1 1 1 1 2 2 2 3 5 4 5 7 7 8 8 7 7 7 6 4 4 4 5 5 6 6 8 7 6 4 3 3 3 3 3 3 2
1 1 1 1 1 1 1 1 1 1 3 3 5 5 6 8 8 9 9 8 8 7 7 7 6 5 5 4 5 5 5 6 7 7 5 4 3 3 2 3 3 2 2
1 1 1 2 2 3 4 4 4 4 5 5 6 6 7 8 8 8 7 7 7 7 7 6 5 5 6 5 5 5 5 6 5 5 5 4 3 3 3 2 2 2 2
1 1 2 3 3 3 4 4 5 6 7 7 6 7 8 8 7 7 7 7 6 6 6 6 6 6 5 5 5 4 4 4 4 5 4 4 3 2 2 3 3 2 3
2 3 4 3 3 4 4 5 5 6 7 7 7 7 7 7 6 7 6 6 7 7 6 6 5 5 6 6 5 4 3 4 4 4 5 4 3 3 3 2 3 3 3
2 3 3 3 2 3 4 4 4 4 4 5 5 5 5 6 8 8 8 7 7 7 6 5 4 6 5 7 6 6 5 4 3 3 3 3 2 3 2 3 4 5 6
2 3 3 3 3 4 4 4 4 4 4 5 5 5 5 6 9 9 9 6 6 5 5 5 6 5 6 5 6 7 6 6 7 3 3 2 2 2 2 3 4 4 5
3 3 3 3 4 4 4 4 4 4 5 5 6 7 6 6 9 9 9 7 7 6 6 5 5 5 4 5 4 3 3 3 3 3 3 2 1 1 1 3 3 4 4
4 3 3 3 4 4 5 5 5 5 7 6 6 6 6 6 8 10 9 7 7 7 6 6 6 5 6 6 4 4 3 3 2 2 2 2 4 5 5 3 4 5 5
3 4 3 4 4 5 6 7 7 6 6 6 7 7 9 7 9 9 9 8 8 7 7 6 8 7 7 7 4 4 4 3 2 1 1 2 3 3 5 4 4 5 5
3 4 5 5 5 6 7 6 6 7 7 7 8 7 7 7 7 9 10 9 9 10 10 8 7 8 7 7 6 4 4 2 3 2 2 2 2 2 2 3 3 4 4
5 5 6 6 7 7 7 8 8 8 8 8 8 8 7 7 10 11 11 12 12 12 12 10 9 9 8 8 6 5 5 5 4 3 3 3 2 2 2 2 2 2 2
6 6 7 8 8 8 8 9 8 9 9 10 11 10 10 10 10 11 12 12 12 12 11 11 11 9 8 7 6 5 6 5 5 5 4 3 1 1 1 2 1 1 2
7 8 8 8 9 9 9 10 11 11 11 12 12 12 12 12 11 12 13 13 12 12 12 11 11 10 9 8 7 5 4 5 5 4 3 2 1 1 2 1 2 2 3
9 9 10 11 11 11 12 12 12 13 14 13 13 13 13 14 14 15 15 14 13 13 13 11 9 7 7 6 5 5 4 4 4 3 3 2 2 2 2 2 2 3 4
11 12 12 12 12 12 12 13 15 15 15 16 16 16 15 15 16 16 15 14 14 13 12 10 9 8 8 8 7 6 5 4 3 3 3 2 2 2 2 2 3 4 4
13 13 14 13 13 13 13 13 13 15 15 15 16 16 16 16 16 16 15 14 13 11 11 10 10 9 9 9 8 7 8 5 2 2 2 2 1 1 2 3 3 4 4
15 16 13 13 13 13 13 14 13 14 15 14 15 15 16 16 16 15 14 13 11 11 11 11 10 10 10 10 9 9 7 8 2 2 2 2 1 2 2 3 3 4 4
15 15 14 14 15 15 15 14 14 15 14 14 14 13 14 15 15 13 12 12 12 12 11 11 10 10 11 10 9 9 9 9 3 2 2 3 2 2 3 3 3 4 4
17 18 16 15 16 15 15 15 15 15 15 15 15 14 14 16 15 12 11 11 12 12 12 12 11 11 11 10 10 9 10 9 7 2 2 2 2 2 2 3 3 4 4
16 17 18 16 16 16 16 15 16 15 15 15 15 14 18 16 14 12 12 12 12 12 12 12 12 11 11 10 10 10 10 10 7 7 3 1 2 2 2 2 3 3 4
17 17 17 17 17 16 17 16 16 16 16 15 15 14 15 13 12 12 12 12 12 12 11 12 12 12 11 11 10 11 10 10 9 7 8 6 2 2 2 3 3 3 4
18 18 18 17 17 18 17 16 16 16 16 15 14 14 13 13 13 13 13 13 12 12 12 12 12 12 11 10 10 11 11 11 10 9 9 8 6 2 2 3 3 4 4
18 18 18 17 17 18 17 17 16 16 16 15 14 13 13 13 13 13 13 13 13 13 13 13 12 13 12 11 11 11 11 10 9 9 10 9 7 5 2 3 3 3 4
17 18 18 17 17 17 17 16 16 15 15 14 14 14 13 13 13 13 13 13 14 14 13 13 13 12 12 12 12 12 11 10 11 11 10 8 8 7 4 2 3 3 4
18 18 18 17 17 17 17 16 16 15 15 15 15 14 14 14 14 14 14 14 14 14 15 13 13 13 13 13 12 11 12 12 12 11 10 9 8 6 4 3 3 3 3

GFSGL_con_lsi_054.txt.gz
Lid_Strength_Index
1 1 1 1 1 1 1 1 1 2 2 3 3 3 4 6 6 8 8 8 9 9 9 8 7 6 7 6 6 7 9 9 10 9 8 8 8 7 7 6 6 6 6
1 1 1 1 1 1 2 2 2 2 2 3 3 5 6 7 8 8 8 8 7 8 7 7 7 6 6 5 6 7 8 8 8 9 9 8 8 7 6 7 5 4 6
2 2 2 2 3 4 4 4 5 5 6 6 6 7 8 8 8 8 8 8 7 7 7 7 7 6 6 6 7 7 7 6 7 9 9 8 7 7 7 6 6 6 4
3 3 3 4 5 5 5 6 6 7 8 8 8 8 8 8 8 7 7 7 7 7 7 7 6 6 7 6 6 6 6 7 7 7 8 8 8 7 7 7 7 6 6
4 4 5 5 5 5 6 7 7 7 8 8 8 8 8 8 7 7 7 7 7 7 7 6 6 6 6 6 5 6 8 8 8 8 8 8 8 8 8 6 6 6 6
4 4 3 4 4 5 6 6 6 7 7 7 6 7 7 6 8 8 8 8 8 8 8 7 6 6 6 7 6 7 8 8 9 9 7 7 7 5 6 6 6 7 8
3 4 4 4 5 5 4 4 5 5 5 5 6 6 6 7 9 9 9 8 8 8 8 8 8 7 8 7 8 8 9 8 9 7 7 7 6 5 5 6 6 6 6
4 4 4 5 5 5 5 5 5 5 6 6 6 7 7 7 9 9 10 9 10 9 9 8 9 8 8 8 9 9 8 7 7 7 7 6 5 5 5 4 5 5 7
5 5 4 5 5 5 5 5 6 6 7 6 6 7 8 8 9 10 11 10 10 10 9 9 9 9 9 8 10 10 9 8 6 5 4 4 3 3 4 6 7 7 10
5 5 4 4 4 6 6 6 7 6 6 6 7 8 10 10 11 11 10 11 12 13 12 11 10 10 10 10 11 11 11 9 8 6 5 5 4 5 5 5 5 6 6
4 4 5 5 5 6 7 7 7 7 8 10 10 10 9 11 12 12 12 14 15 15 14 14 13 11 11 11 11 12 12 10 8 7 6 5 4 5 5 4 4 5 5
5 5 5 6 6 7 7 8 8 9 10 11 12 12 11 12 13 13 13 14 14 15 15 14 14 12 12 11 11 10 9 8 7 7 7 6 5 4 3 3 4 4 4
6 6 7 7 7 8 9 9 10 10 12 13 14 14 14 14 14 14 14 14 14 15 14 14 13 13 12 11 10 9 9 9 9 8 8 7 5 4 2 3 3 2 4
7 8 8 9 9 10 11 12 12 14 14 14 14 15 15 15 16 16 16 16 15 15 15 15 15 13 12 12 10 9 8 7 7 7 7 5 4 3 3 3 3 4 4
8 9 10 10 12 13 14 14 15 16 16 15 16 15 17 18 17 17 17 17 17 15 16 15 14 13 13 13 12 11 10 9 9 8 8 6 4 3 4 3 3 3 5
10 11 13 13 14 13 15 16 15 16 16 16 16 17 17 16 17 16 16 15 14 14 15 16 16 15 14 13 13 12 11 10 10 9 9 6 4 4 3 3 3 4 5
14 14 14 14 14 15 15 15 17 16 16 16 16 17 17 18 17 16 15 14 14 13 17 16 16 15 14 13 12 12 12 11 11 10 9 6 3 3 3 3 3 4 5
16 15 14 14 15 15 15 15 15 16 17 17 16 16 16 16 16 15 15 14 16 14 14 14 15 14 13 13 13 12 12 12 12 11 10 5 3 4 4 4 4 5 5
16 16 15 16 17 17 16 16 16 16 16 16 16 16 17 16 16 15 14 17 18 16 14 14 14 14 14 13 13 13 12 13 11 11 9 6 3 3 4 5 4 4 4
18 18 16 16 17 17 16 17 17 17 17 17 17 17 17 18 21 19 18 18 18 16 15 14 14 14 14 14 14 13 13 13 12 11 10 9 9 4 5 7 5 4 5
18 19 19 17 17 17 17 17 17 17 17 17 17 20 20 19 20 17 17 17 15 16 16 14 15 15 14 14 14 14 13 14 12 12 10 11 10 9 4 5 3 4 4
18 18 18 18 18 18 19 18 18 18 17 18 17 16 18 19 17 16 16 16 17 16 15 15 15 15 14 14 15 15 14 14 13 12 12 11 11 10 8 5 3 4 4
19 18 19 18 18 20 19 18 18 18 18 18 18 17 17 17 16 16 16 17 16 17 16 15 16 15 15 15 14 13 14 14 14 13 13 13 12 11 9 8 4 4 4
19 19 19 19 19 20 19 18 18 18 18 18 17 17 16 16 17 17 17 17 18 18 17 16 15 16 16 15 13 13 13 13 13 12 13 13 13 11 10 9 7 4 4
19 19 19 19 19 18 18 18 18 18 18 18 17 16 16 16 16 16 17 17 18 18 16 17 16 15 15 15 15 15 14 12 14 15 14 13 13 12 11 9 6 3 4
19 19 19 19 19 18 19 19 19 18 17 17 17 18 17 17 17 18 17 18 17 17 17 16 16 16 16 14 13 12 13 13 14 15 14 13 12 12 10 9 8 5 4

GFSGL_con_lsi_057.txt.gz
Lid_Strength_Index
2 2 1 1 2 2 3 3 2 3 4 3 3 4 4 6 6 7 7 7 8 8 7 7 8 6 7 6 6 6 7 8 9 11 10 9 10 9 8 8 7 7 7
2 1 2 2 2 2 2 2 2 3 4 4 4 4 5 6 7 8 8 8 8 8 7 7 7 6 7 6 6 7 7 7 9 11 10 9 9 8 9 9 7 6 7
2 2 2 2 1 2 4 5 5 6 6 5 6 6 7 7 8 8 8 8 8 7 7 7 7 7 7 7 7 7 7 6 8 9 9 10 8 9 9 9 9 8 6
2 3 4 4 4 6 6 6 6 6 7 7 7 8 8 8 8 8 8 8 7 7 7 7 7 7 7 7 7 7 7 7 7 8 8 7 10 7 8 8 8 8 7
5 5 6 6 6 7 7 7 7 7 7 8 8 8 8 8 8 8 7 7 8 8 7 7 7 7 7 7 7 8 8 9 10 10 10 11 12 11 10 8 8 8 7
6 6 6 6 7 8 8 8 8 8 8 8 8 8 8 7 9 8 8 8 7 8 8 8 8 8 8 8 8 8 8 8 9 10 10 10 10 11 10 9 9 8 8
6 6 6 6 7 7 7 8 7 7 8 8 8 8 8 9 9 8 9 8 8 10 10 10 9 8 10 10 10 10 10 9 10 9 10 10 9 9 9 9 8 7 7
6 7 6 7 7 7 8 8 8 8 8 8 7 7 7 7 9 9 10 10 11 11 11 11 12 12 11 11 13 13 12 11 10 9 9 8 8 7 7 5 5 5 6
7 7 8 7 7 8 8 7 8 7 7 7 7 8 8 8 10 10 11 12 13 14 12 13 12 13 12 12 14 15 15 14 11 10 8 7 7 6 4 4 6 8 8
7 7 7 7 7 7 7 7 7 7 7 7 8 10 11 13 12 11 13 16 16 16 15 14 13 13 12 13 14 15 15 14 14 13 12 10 7 7 5 4 4 6 7
6 6 6 7 7 8 8 8 8 9 10 12 12 12 13 14 14 13 14 16 17 16 16 16 16 14 14 13 12 13 13 12 12 12 11 10 9 7 5 5 5 5 4
6 7 7 8 7 7 8 9 9 11 12 13 13 15 16 16 14 15 15 15 15 17 17 16 16 14 14 13 13 12 11 12 11 11 11 10 9 8 6 4 6 4 3
7 8 8 7 8 8 11 11 11 12 14 15 15 16 17 16 17 16 16 16 16 17 16 16 15 15 14 14 13 13 13 14 13 12 11 10 8 6 6 5 4 4 4
8 9 9 10 11 12 11 12 14 16 16 16 16 17 17 18 18 18 18 18 17 17 17 17 17 16 16 16 15 14 14 14 13 13 12 11 9 9 6 5 4 4 5
9 10 11 12 14 15 14 15 17 17 16 17 17 17 18 19 18 17 17 17 19 17 18 19 17 17 17 16 16 15 14 13 13 12 13 12 11 10 9 3 3 3 5
12 13 14 15 15 15 16 17 16 16 16 16 16 17 17 17 17 17 17 16 16 16 18 20 24 24 20 18 17 16 15 14 13 13 13 13 12 11 9 3 3 4 5
14 14 14 15 15 16 17 18 19 17 16 16 16 16 16 17 17 17 17 16 16 16 20 20 24 24 21 17 16 16 16 14 13 13 13 13 12 11 7 4 3 4 4
15 15 16 16 17 17 17 17 17 18 18 18 16 17 16 17 17 17 16 16 18 18 18 19 21 20 18 17 16 16 15 15 14 14 14 13 12 11 10 4 4 4 5
17 17 18 18 18 17 17 17 17 17 17 17 17 17 18 18 18 18 17 20 21 20 18 18 20 19 18 16 19 19 18 16 15 15 14 13 12 12 11 6 4 6 7
18 17 17 17 17 17 17 18 17 17 17 18 18 19 19 21 24 25 23 25 24 21 21 19 18 16 19 18 21 21 18 17 16 15 15 14 13 12 12 11 7 5 4
18 19 18 17 18 18 18 18 18 18 19 19 20 21 21 21 22 22 20 22 22 21 23 19 19 22 21 20 16 18 18 17 16 15 15 14 13 13 12 11 9 7 5
19 18 18 19 18 19 20 19 19 19 19 20 20 20 21 22 20 19 21 23 24 22 20 21 22 20 20 17 18 19 18 16 16 16 16 15 13 13 13 12 11 10 4
19 19 19 19 19 20 20 19 20 20 20 21 20 20 20 21 21 21 23 24 23 22 23 23 25 20 20 22 22 17 16 16 16 16 16 15 15 14 14 13 12 11 8
19 20 19 20 20 21 21 21 21 20 20 21 21 22 21 21 23 23 23 24 25 26 28 26 23 21 20 18 18 17 15 15 14 14 17 16 16 15 14 13 12 11 9
20 21 21 21 21 22 22 22 22 22 23 23 24 22 21 23 22 25 27 27 25 27 24 24 24 21 21 20 18 17 15 13 13 13 14 15 16 15 14 13 12 10 9
20 20 21 21 21 22 24 25 25 26 25 23 24 25 26 24 24 28 26 26 23 24 25 24 22 21 20 18 16 14 14 13 13 13 13 14 16 14 14 13 12 11 9